Location: Plum
(40.5000°N, 79.7500°W)
Time: 13:50:53
(UTC-04:00)

MOZ.5/SAFIR/RUBIN 5/SL-8 - Visible Passes

Search period start: 27 May 2015 00:00
Search period end: 06 June 2015 00:00
Orbit: 679 x 708 km, 97.8° (Epoch: 26 May)

Date Brightness Start Highest point End Pass type
(mag) Time Alt. Az. Time Alt. Az. Time Alt. Az.
28 May 6.7 04:58:03 10° ESE 05:01:21 20° ENE 05:04:48 10° NNE visible
30 May 7.0 04:41:37 10° E 04:43:53 14° ENE 04:46:22 10° NNE visible
02 Jun 6.5 05:02:28 10° ESE 05:06:02 23° ENE 05:09:42 10° NNE visible
04 Jun 6.8 04:45:51 10° E 04:48:32 16° ENE 04:51:25 10° NNE visible
